sat.trackr.live / text

‹ back to catalog

STARLINK-11144 [DTC]

NORAD 59955 · 2024-107L

PAYLOAD ACTIVE UNKNOWN

§ Identity

Operator
Country
US
Launch date
2024-06-05
Launch site
AFETR
Launch vehicle
Mass (kg)
RCS (m²)

Purposes: comms

External: N2YO · Heavens-Above · Gunter

§ Orbital elements

Epoch: 2026-05-24T16:17:41.658432Z

Period
91.74 min
Inclination
53.1590°
Eccentricity
0.0001186
Mean motion
15.69707486 rev/d
Perigee alt
358.9 km
Apogee alt
360.5 km
Semi-major
6,737.9 km
B*
7.6924e-6
RAAN
236.4693°
Arg perigee
83.4471°
Mean anomaly
276.6682°
Rev number
11,414

§ Raw data

STARLINK-11144 [DTC]1 59955U 24107L   26144.67895438  .00000343  00000+0  76924-5 0  99962 59955  53.1590 236.4693 0001186  83.4471 276.6682 15.69707486114145

JSON: /api/v1/satellites/59955 · /tle

For live sub-satellite position, see the globe view (requires WebGL).

§ Visibility from observer

Set your observer location to see the next 7 days of passes ≥ 10°. The values pass through the URL so the page stays shareable.

No JS? Fill the form by hand. The geolocation button needs JavaScript.